TimeEDT,TemperatureF,Dew PointF,Humidity,Sea Level PressureIn,VisibilityMPH,Wind Direction,Wind SpeedMPH,Gust SpeedMPH,PrecipitationIn,Events,Conditions,WindDirDegrees,DateUTC
12:52 AM,44.1,39.9,85,30.19,10.0,Calm,Calm,-,N/A,,Partly Cloudy,0,2011-10-25 04:52:00
1:52 AM,41.0,39.0,93,30.19,9.0,Calm,Calm,-,N/A,,Clear,0,2011-10-25 05:52:00
2:52 AM,42.8,39.2,87,30.20,10.0,Calm,Calm,-,N/A,,Clear,0,2011-10-25 06:52:00
3:52 AM,39.0,37.9,96,30.19,9.0,South,3.5,-,N/A,,Clear,190,2011-10-25 07:52:00
4:52 AM,39.9,37.0,89,30.21,9.0,Calm,Calm,-,N/A,,Clear,0,2011-10-25 08:52:00
5:52 AM,39.9,37.9,93,30.22,7.0,Calm,Calm,-,N/A,,Clear,0,2011-10-25 09:52:00
6:52 AM,39.0,37.9,96,30.23,7.0,SE,3.5,-,N/A,,Clear,140,2011-10-25 10:52:00
7:52 AM,39.2,37.4,93,30.24,7.0,South,3.5,-,N/A,,Clear,180,2011-10-25 11:52:00
8:52 AM,42.1,39.0,89,30.23,8.0,South,5.8,-,N/A,,Partly Cloudy,180,2011-10-25 12:52:00
9:52 AM,53.6,44.6,72,30.22,10.0,South,8.1,-,N/A,,Partly Cloudy,170,2011-10-25 13:52:00
10:52 AM,57.2,44.6,63,30.21,10.0,South,8.1,-,N/A,,Partly Cloudy,180,2011-10-25 14:52:00
11:52 AM,62.1,44.1,52,30.19,10.0,SSW,9.2,-,N/A,,Scattered Clouds,210,2011-10-25 15:52:00
12:52 PM,64.9,43.0,45,30.17,10.0,South,12.7,-,N/A,,Partly Cloudy,180,2011-10-25 16:52:00
1:52 PM,66.9,43.0,42,30.13,10.0,South,17.3,-,N/A,,Scattered Clouds,170,2011-10-25 17:52:00
2:52 PM,69.1,39.0,33,30.09,10.0,South,12.7,-,N/A,,Scattered Clouds,180,2011-10-25 18:52:00
3:52 PM,69.1,41.0,36,30.07,10.0,South,13.8,-,N/A,,Scattered Clouds,180,2011-10-25 19:52:00
4:52 PM,69.8,42.8,38,30.05,10.0,South,12.7,-,N/A,,Scattered Clouds,180,2011-10-25 20:52:00
5:52 PM,66.9,43.0,42,30.01,10.0,South,10.4,-,N/A,,Mostly Cloudy,180,2011-10-25 21:52:00
6:52 PM,61.0,44.1,54,29.99,10.0,South,10.4,-,N/A,,Mostly Cloudy,170,2011-10-25 22:52:00
7:52 PM,63.0,42.1,46,29.97,10.0,South,11.5,-,N/A,,Mostly Cloudy,180,2011-10-25 23:52:00
8:52 PM,57.9,42.1,56,29.96,10.0,South,9.2,-,N/A,,Mostly Cloudy,180,2011-10-26 00:52:00
9:52 PM,61.0,42.1,50,29.95,10.0,South,8.1,-,N/A,,Mostly Cloudy,190,2011-10-26 01:52:00
10:52 PM,55.0,41.0,59,29.95,10.0,South,6.9,-,N/A,,Scattered Clouds,190,2011-10-26 02:52:00
11:52 PM,60.1,37.9,44,29.93,10.0,SSW,8.1,-,N/A,,Scattered Clouds,200,2011-10-26 03:52:00